This is the latest recevied weather packets stored in our database for station/object SR5NLK-1. If no packets are shown the sender has not sent any weather packets the latest 10 day(s).
| Time | Temp. | Humidity | Pressure | Rain* | Wind** | Luminosity | Snow |
|---|---|---|---|---|---|---|---|
| 1778154148 | 15.56° C | 73% | 1027.1 hPa | 0 mm | - | - | - |
| 1778153848 | 15.56° C | 73% | 923.6 hPa | 0 mm | - | - | - |
| 1778153548 | 15.56° C | 74% | 1046 hPa | 0 mm | - | - | - |
| 1778153427 | 15.56° C | 74% | 1005.8 hPa | 0 mm | - | - | - |
| 1778153248 | 15.56° C | 75% | 1019.7 hPa | 0 mm | - | - | - |
| 1778152948 | 15.56° C | 77% | 979.2 hPa | 0 mm | - | - | - |
| 1778152648 | 14.44° C | 78% | 1061.6 hPa | 0 mm | - | - | - |
| 1778152348 | 14.44° C | 78% | 1004.1 hPa | 0 mm | - | - | - |
| 1778152048 | 14.44° C | 78% | 1032.9 hPa | 0 mm | - | - | - |
| 1778151748 | 14.44° C | 77% | 1094.1 hPa | 0 mm | - | - | - |
| 1778151447 | 14.44° C | 77% | 1042.8 hPa | 0 mm | - | - | - |
| 1778151148 | 15° C | 79% | 926.7 hPa | 0 mm | - | - | - |
| 1778150848 | 14.44° C | 81% | 960.8 hPa | 0 mm | - | - | - |
| 1778150548 | 13.89° C | 82% | 1049.1 hPa | 0 mm | - | - | - |
| 1778150248 | 13.33° C | 82% | 1004.1 hPa | 0 mm | - | - | - |
| 1778149948 | 13.33° C | 82% | 1062.7 hPa | 0 mm | - | - | - |
| 1778149648 | 13.33° C | 82% | 1007.3 hPa | 0 mm | - | - | - |
| 1778149467 | 13.33° C | 82% | 952.9 hPa | 0 mm | - | - | - |
| 1778149348 | 13.33° C | 82% | 988.3 hPa | 0 mm | - | - | - |
| 1778149048 | 13.33° C | 82% | 981 hPa | 0 mm | - | - | - |
| 1778148748 | 13.33° C | 82% | 956 hPa | 0 mm | - | - | - |
| 1778148448 | 12.78° C | 82% | 963.9 hPa | 0 mm | - | - | - |
| 1778148148 | 12.78° C | 81% | 937 hPa | 0 mm | - | - | - |
| 1778147848 | 12.78° C | 81% | 1026 hPa | 0 mm | - | - | - |
| 1778147548 | 13.33° C | 80% | 1004.5 hPa | 0 mm | - | - | - |
* Rain latest hour (hover to see other rain measurements)
** Current wind speed in m/s (hover to see current wind gust speed)